TimeEST,TemperatureF,Dew PointF,Humidity,Sea Level PressureIn,VisibilityMPH,Wind Direction,Wind SpeedMPH,Gust SpeedMPH,PrecipitationIn,Events,Conditions,WindDirDegrees,DateUTC
12:51 AM,33.1,10.0,38,30.47,10.0,Calm,Calm,-,N/A,,Overcast,0,2013-11-29 05:51:00
1:51 AM,33.1,10.9,40,30.48,10.0,SW,5.8,-,N/A,,Overcast,220,2013-11-29 06:51:00
2:51 AM,33.1,10.9,40,30.48,10.0,SW,5.8,-,N/A,,Overcast,220,2013-11-29 07:51:00
3:51 AM,33.1,14.0,46,30.48,10.0,West,6.9,-,N/A,,Overcast,270,2013-11-29 08:51:00
4:51 AM,33.1,14.0,46,30.49,10.0,West,6.9,-,N/A,,Overcast,260,2013-11-29 09:51:00
5:51 AM,32.0,17.1,54,30.51,10.0,WNW,6.9,-,N/A,,Mostly Cloudy,290,2013-11-29 10:51:00
6:51 AM,32.0,16.0,52,30.53,10.0,WNW,8.1,-,N/A,,Overcast,300,2013-11-29 11:51:00
7:51 AM,32.0,16.0,52,30.56,10.0,NW,9.2,-,N/A,,Overcast,320,2013-11-29 12:51:00
8:51 AM,33.1,17.1,52,30.58,10.0,WNW,8.1,-,N/A,,Partly Cloudy,300,2013-11-29 13:51:00
9:51 AM,34.0,16.0,48,30.59,10.0,NW,9.2,-,N/A,,Clear,320,2013-11-29 14:51:00
10:51 AM,36.0,15.1,43,30.58,10.0,NW,8.1,-,N/A,,Clear,310,2013-11-29 15:51:00
11:51 AM,37.0,16.0,42,30.58,10.0,NNW,8.1,-,N/A,,Partly Cloudy,340,2013-11-29 16:51:00
12:51 PM,37.0,17.1,44,30.58,10.0,NNW,9.2,-,N/A,,Partly Cloudy,330,2013-11-29 17:51:00
1:51 PM,37.9,17.1,43,30.58,10.0,NW,9.2,-,N/A,,Scattered Clouds,320,2013-11-29 18:51:00
2:51 PM,37.0,17.1,44,30.59,10.0,NW,9.2,-,N/A,,Mostly Cloudy,310,2013-11-29 19:51:00
3:51 PM,36.0,15.1,43,30.62,10.0,NNW,15.0,-,N/A,,Mostly Cloudy,340,2013-11-29 20:51:00
4:51 PM,35.1,15.1,44,30.63,10.0,North,17.3,-,N/A,,Partly Cloudy,350,2013-11-29 21:51:00
5:51 PM,35.1,15.1,44,30.66,10.0,NNW,11.5,-,N/A,,Partly Cloudy,330,2013-11-29 22:51:00
6:51 PM,34.0,15.1,46,30.67,10.0,NNW,11.5,-,N/A,,Partly Cloudy,330,2013-11-29 23:51:00
7:51 PM,34.0,16.0,48,30.69,10.0,NNW,9.2,-,N/A,,Partly Cloudy,340,2013-11-30 00:51:00
8:51 PM,33.1,16.0,50,30.71,10.0,North,13.8,-,N/A,,Clear,350,2013-11-30 01:51:00
9:51 PM,32.0,16.0,52,30.72,10.0,North,9.2,-,N/A,,Clear,350,2013-11-30 02:51:00
10:51 PM,32.0,14.0,48,30.73,10.0,North,9.2,-,N/A,,Clear,350,2013-11-30 03:51:00
11:51 PM,30.9,12.9,47,30.73,10.0,NNW,11.5,-,N/A,,Clear,340,2013-11-30 04:51:00